datetime,flow volume
1938-01-01,107.30579
1938-01-02,107.10744
1938-01-03,106.90909
1938-01-04,106.71074
1938-01-05,106.31405
1938-01-06,105.52066
1938-01-07,104.72727
1938-01-08,103.93388
1938-01-09,103.1405
1938-01-10,102.34711
1938-01-11,101.55372
1938-01-12,100.76033
1938-01-13,99.96694
1938-01-14,99.17355
1938-01-15,98.38017
1938-01-16,97.58678
1938-01-17,96.79339
1938-01-18,96.0
1938-01-19,95.20661
1938-01-20,94.41322
1938-01-21,93.81818
1938-01-22,94.01653
1938-01-23,94.21488
1938-01-24,94.41322
1938-01-25,94.61157
1938-01-26,94.80992
1938-01-27,94.80992
1938-01-28,95.00826
1938-01-29,95.00826
1938-01-30,95.20661
1938-01-31,95.20661
1938-02-01,95.20661
1938-02-02,95.20661
1938-02-03,95.20661
1938-02-04,95.20661
1938-02-05,95.20661
1938-02-06,95.20661
1938-02-07,95.20661
1938-02-08,751.73554
1938-02-09,908.42975
1938-02-10,700.16529
1938-02-11,644.6281
1938-02-12,1001.65289
1938-02-13,1390.41322
1938-02-14,1489.58678
1938-02-15,1519.33884
1938-02-16,1549.09091
1938-02-17,1755.3719
1938-02-18,1499.50413
1938-02-19,999.66942
1938-02-20,825.12397
1938-02-21,714.04959
1938-02-22,706.1157
1938-02-23,706.1157
1938-02-24,614.87603
1938-02-25,357.02479
1938-02-26,991.73554
1938-02-27,1227.7686
1938-02-28,1180.16529
1938-03-01,1172.2314
1938-03-02,1350.7438
1938-03-03,1440.0
1938-03-04,1537.19008
1938-03-05,1959.66942
1938-03-06,1979.50413
1938-03-07,1846.61157
1938-03-08,1799.00826
1938-03-09,1578.84298
1938-03-10,1584.79339
1938-03-11,1594.71074
1938-03-12,2033.05785
1938-03-13,2142.14876
1938-03-14,2094.54545
1938-03-15,1923.96694
1938-03-16,2205.61983
1938-03-17,2163.96694
1938-03-18,2177.85124
1938-03-19,2461.4876
1938-03-20,2907.7686
1938-03-21,2558.67769
1938-03-22,2699.50413
1938-03-23,3076.36364
1938-03-24,3298.5124
1938-03-25,3338.18182
1938-03-26,3469.09091
1938-03-27,3385.78512
1938-03-28,3473.05785
1938-03-29,3558.34711
1938-03-30,3568.26446
1938-03-31,3443.30579
1938-04-01,3528.59504
1938-04-02,3695.20661
1938-04-03,3615.86777
1938-04-04,3592.06612
1938-04-05,3131.90083
1938-04-06,3629.75207
1938-04-07,3945.12397
1938-04-08,3875.70248
1938-04-09,3851.90083
1938-04-10,3937.19008
1938-04-11,4121.65289
1938-04-12,4125.61983
1938-04-13,3635.70248
1938-04-14,3480.99174
1938-04-15,3268.76033
1938-04-16,4052.2314
1938-04-17,4210.90909
1938-04-18,3935.20661
1938-04-19,3750.7438
1938-04-20,3732.89256
1938-04-21,3816.19835
1938-04-22,3986.77686
1938-04-23,4008.59504
1938-04-24,3976.8595
1938-04-25,3986.77686
1938-04-26,4145.45455
1938-04-27,4496.52893
1938-04-28,4381.4876
1938-04-29,4066.1157
1938-04-30,3663.47107
1938-05-01,3730.90909
1938-05-02,3794.38017
1938-05-03,3824.13223
1938-05-04,3578.18182
1938-05-05,3316.36364
1938-05-06,3365.95041
1938-05-07,3407.60331
1938-05-08,3284.6281
1938-05-09,3286.61157
1938-05-10,3219.17355
1938-05-11,3274.71074
1938-05-12,3288.59504
1938-05-13,3443.30579
1938-05-14,3939.17355
1938-05-15,3746.77686
1938-05-16,3717.02479
1938-05-17,3746.77686
1938-05-18,3899.50413
1938-05-19,3808.26446
1938-05-20,3703.1405
1938-05-21,3713.05785
1938-05-22,3722.97521
1938-05-23,3754.71074
1938-05-24,3689.2562
1938-05-25,3195.3719
1938-05-26,3719.00826
1938-05-27,3968.92562
1938-05-28,3909.42149
1938-05-29,3943.1405
1938-05-30,4024.46281
1938-05-31,4103.80165
1938-06-01,4462.80992
1938-06-02,4536.19835
1938-06-03,4486.61157
1938-06-04,4486.61157
1938-06-05,4486.61157
1938-06-06,4393.38843
1938-06-07,4369.58678
1938-06-08,4476.69421
1938-06-09,4395.3719
1938-06-10,4367.60331
1938-06-11,4407.27273
1938-06-12,4363.63636
1938-06-13,4363.63636
1938-06-14,4155.3719
1938-06-15,4206.94215
1938-06-16,4204.95868
1938-06-17,4070.08264
1938-06-18,4133.55372
1938-06-19,4135.53719
1938-06-20,4135.53719
1938-06-21,4208.92562
1938-06-22,4567.93388
1938-06-23,4222.80992
1938-06-24,3897.52066
1938-06-25,4316.03306
1938-06-26,4294.21488
1938-06-27,3600.0
1938-06-28,2382.14876
1938-06-29,1515.3719
1938-06-30,1011.57025
1938-07-01,1281.32231
1938-07-02,1842.64463
1938-07-03,2689.58678
1938-07-04,3318.34711
1938-07-05,3292.56198
1938-07-06,3449.2562
1938-07-07,3552.39669
1938-07-08,3968.92562
1938-07-09,4226.77686
1938-07-10,3959.00826
1938-07-11,4524.29752
1938-07-12,4058.18182
1938-07-13,4353.71901
1938-07-14,4389.42149
1938-07-15,3845.95041
1938-07-16,4089.91736
1938-07-17,4258.5124
1938-07-18,4252.56198
1938-07-19,4095.86777
1938-07-20,3681.32231
1938-07-21,3223.1405
1938-07-22,3026.77686
1938-07-23,2931.57025
1938-07-24,3036.69421
1938-07-25,3100.16529
1938-07-26,3423.47107
1938-07-27,3425.45455
1938-07-28,3445.28926
1938-07-29,3348.09917
1938-07-30,3635.70248
1938-07-31,3673.38843
1938-08-01,3925.28926
1938-08-02,4066.1157
1938-08-03,4230.7438
1938-08-04,4790.08264
1938-08-05,4815.86777
1938-08-06,4815.86777
1938-08-07,4815.86777
1938-08-08,4801.98347
1938-08-09,4532.2314
1938-08-10,4335.86777
1938-08-11,4452.89256
1938-08-12,4641.32231
1938-08-13,4452.89256
1938-08-14,4236.69421
1938-08-15,4060.16529
1938-08-16,4157.35537
1938-08-17,4157.35537
1938-08-18,4157.35537
1938-08-19,4080.0
1938-08-20,3899.50413
1938-08-21,3869.75207
1938-08-22,3879.66942
1938-08-23,3869.75207
1938-08-24,3838.01653
1938-08-25,3881.65289
1938-08-26,3998.67769
1938-08-27,4008.59504
1938-08-28,4129.58678
1938-08-29,4169.2562
1938-08-30,4068.09917
1938-08-31,3947.10744
1938-09-01,2935.53719
1938-09-02,1332.89256
1938-09-03,1793.05785
1938-09-04,1729.58678
1938-09-05,1594.71074
1938-09-06,1426.1157
1938-09-07,971.90083
1938-09-08,553.38843
1938-09-09,940.16529
1938-09-10,1005.61983
1938-09-11,989.75207
1938-09-12,975.86777
1938-09-13,999.66942
1938-09-14,1027.43802
1938-09-15,958.01653
1938-09-16,892.56198
1938-09-17,866.77686
1938-09-18,971.90083
1938-09-19,1223.80165
1938-09-20,1320.99174
1938-09-21,1505.45455
1938-09-22,1697.85124
1938-09-23,1689.91736
1938-09-24,1884.29752
1938-09-25,2023.1405
1938-09-26,2015.20661
1938-09-27,1969.58678
1938-09-28,2046.94215
1938-09-29,2183.80165
1938-09-30,2263.1405
1938-10-01,2304.79339
1938-10-02,2290.90909
1938-10-03,2243.30579
1938-10-04,2019.17355
1938-10-05,1457.85124
1938-10-06,805.28926
1938-10-07,273.71901
1938-10-08,144.79339
1938-10-09,406.61157
1938-10-10,247.93388
1938-10-11,192.39669
1938-10-12,182.47934
1938-10-13,194.38017
1938-10-14,220.16529
1938-10-15,583.1405
1938-10-16,1689.91736
1938-10-17,1951.73554
1938-10-18,1923.96694
1938-10-19,1943.80165
1938-10-20,1939.83471
1938-10-21,1574.87603
1938-10-22,210.24793
1938-10-23,158.67769
1938-10-24,138.84298
1938-10-25,128.92562
1938-10-26,140.82645
1938-10-27,152.72727
1938-10-28,146.77686
1938-10-29,148.76033
1938-10-30,140.82645
1938-10-31,140.82645
1938-11-01,146.77686
1938-11-02,148.76033
1938-11-03,144.79339
1938-11-04,144.79339
1938-11-05,148.76033
1938-11-06,142.80992
1938-11-07,140.82645
1938-11-08,142.80992
1938-11-09,140.82645
1938-11-10,140.82645
1938-11-11,144.79339
1938-11-12,140.82645
1938-11-13,1090.90909
1938-11-14,1562.97521
1938-11-15,1676.03306
1938-11-16,1598.67769
1938-11-17,1610.57851
1938-11-18,960.0
1938-11-19,357.02479
1938-11-20,146.77686
1938-11-21,158.67769
1938-11-22,150.7438
1938-11-23,144.79339
1938-11-24,144.79339
1938-11-25,150.7438
1938-11-26,150.7438
1938-11-27,154.71074
1938-11-28,144.79339
1938-11-29,97.19008
1938-11-30,91.23967
1938-12-01,71.40496
1938-12-02,63.47107
1938-12-03,61.4876
1938-12-04,65.45455
1938-12-05,69.42149
1938-12-06,75.3719
1938-12-07,71.40496
1938-12-08,67.43802
1938-12-09,69.42149
1938-12-10,73.38843
1938-12-11,73.38843
1938-12-12,73.38843
1938-12-13,422.47934
1938-12-14,1618.5124
1938-12-15,1941.81818
1938-12-16,1951.73554
1938-12-17,1566.94215
1938-12-18,704.13223
1938-12-19,228.09917
1938-12-20,11.10744
1938-12-21,8.13223
1938-12-22,6.14876
1938-12-23,3.17355
1938-12-24,3.17355
1938-12-25,3.96694
1938-12-26,3.96694
1938-12-27,3.96694
1938-12-28,3.96694
1938-12-29,2.77686
1938-12-30,2.77686
1938-12-31,2.77686
1939-01-01,3.57025
1939-01-02,3.7686
1939-01-03,4.16529
1939-01-04,4.56198
1939-01-05,4.95868
1939-01-06,5.15702
1939-01-07,5.35537
1939-01-08,5.95041
1939-01-09,5.95041
1939-01-10,5.95041
1939-01-11,4.95868
1939-01-12,5.75207
1939-01-13,5.35537
1939-01-14,4.36364
1939-01-15,4.95868
1939-01-16,6.94215
1939-01-17,7.1405
1939-01-18,8.33058
1939-01-19,8.13223
1939-01-20,9.12397
1939-01-21,9.12397
1939-01-22,8.72727
1939-01-23,8.52893
1939-01-24,7.73554
1939-01-25,7.53719
1939-01-26,7.33884
1939-01-27,8.13223
1939-01-28,8.92562
1939-01-29,7.73554
1939-01-30,7.73554
1939-01-31,8.33058
1939-02-01,7.93388
1939-02-02,7.93388
1939-02-03,5.95041
1939-02-04,5.95041
1939-02-05,5.95041
1939-02-06,1396.36364
1939-02-07,2082.64463
1939-02-08,1931.90083
1939-02-09,1418.18182
1939-02-10,1039.33884
1939-02-11,1029.42149
1939-02-12,1447.93388
1939-02-13,1737.52066
1939-02-14,1618.5124
1939-02-15,1630.41322
1939-02-16,1557.02479
1939-02-17,878.67769
1939-02-18,398.67769
1939-02-19,309.42149
1939-02-20,158.67769
1939-02-21,5.95041
1939-02-22,5.95041
1939-02-23,5.95041
1939-02-24,5.95041
1939-02-25,5.95041
1939-02-26,5.95041
1939-02-27,3.96694
1939-02-28,1324.95868
1939-03-01,1497.52066
1939-03-02,1487.60331
1939-03-03,1681.98347
1939-03-04,2042.97521
1939-03-05,1971.57025
1939-03-06,1916.03306
1939-03-07,1977.52066
1939-03-08,1773.22314
1939-03-09,1709.75207
1939-03-10,1545.12397
1939-03-11,1836.69421
1939-03-12,2003.30579
1939-03-13,2003.30579
1939-03-14,2062.80992
1939-03-15,2300.82645
1939-03-16,2479.33884
1939-03-17,2895.86777
1939-03-18,3233.05785
1939-03-19,3094.21488
1939-03-20,2975.20661
1939-03-21,3034.71074
1939-03-22,3054.54545
1939-03-23,2757.02479
1939-03-24,2638.01653
1939-03-25,2856.19835
1939-03-26,2955.3719
1939-03-27,2876.03306
1939-03-28,2876.03306
1939-03-29,3490.90909
1939-03-30,3471.07438
1939-03-31,3550.41322
1939-04-01,4165.28926
1939-04-02,3986.77686
1939-04-03,3947.10744
1939-04-04,3828.09917
1939-04-05,3808.26446
1939-04-06,3669.42149
1939-04-07,3609.91736
1939-04-08,3847.93388
1939-04-09,3927.27273
1939-04-10,3847.93388
1939-04-11,3669.42149
1939-04-12,3530.57851
1939-04-13,3550.41322
1939-04-14,3530.57851
1939-04-15,3490.90909
1939-04-16,3451.23967
1939-04-17,3629.75207
1939-04-18,3609.91736
1939-04-19,3490.90909
1939-04-20,3431.40496
1939-04-21,3252.89256
1939-04-22,3193.38843
1939-04-23,3391.73554
1939-04-24,3332.2314
1939-04-25,3233.05785
1939-04-26,3193.38843
1939-04-27,3193.38843
1939-04-28,3014.87603
1939-04-29,2935.53719
1939-04-30,2935.53719
1939-05-01,2915.70248
1939-05-02,2895.86777
1939-05-03,2995.04132
1939-05-04,2995.04132
1939-05-05,2915.70248
1939-05-06,3272.72727
1939-05-07,3391.73554
1939-05-08,3352.06612
1939-05-09,3252.89256
1939-05-10,3252.89256
1939-05-11,3233.05785
1939-05-12,3312.39669
1939-05-13,3312.39669
1939-05-14,3391.73554
1939-05-15,3371.90083
1939-05-16,3371.90083
1939-05-17,3272.72727
1939-05-18,3193.38843
1939-05-19,3133.8843
1939-05-20,3352.06612
1939-05-21,3490.90909
1939-05-22,3490.90909
1939-05-23,3570.24793
1939-05-24,3828.09917
1939-05-25,3828.09917
1939-05-26,3828.09917
1939-05-27,3788.42975
1939-05-28,3927.27273
1939-05-29,3867.7686
1939-05-30,3649.58678
1939-05-31,3530.57851
1939-06-01,3451.23967
1939-06-02,3609.91736
1939-06-03,3867.7686
1939-06-04,3887.60331
1939-06-05,3828.09917
1939-06-06,3768.59504
1939-06-07,3689.2562
1939-06-08,3629.75207
1939-06-09,3768.59504
1939-06-10,3986.77686
1939-06-11,4105.78512
1939-06-12,4105.78512
1939-06-13,4085.95041
1939-06-14,4204.95868
1939-06-15,4403.30579
1939-06-16,4323.96694
1939-06-17,4462.80992
1939-06-18,4462.80992
1939-06-19,4462.80992
1939-06-20,4423.1405
1939-06-21,4323.96694
1939-06-22,4284.29752
1939-06-23,4105.78512
1939-06-24,4066.1157
1939-06-25,4046.28099
1939-06-26,4046.28099
1939-06-27,3986.77686
1939-06-28,3947.10744
1939-06-29,3867.7686
1939-06-30,3867.7686
1939-07-01,3867.7686
1939-07-02,3808.26446
1939-07-03,3550.41322
1939-07-04,4046.28099
1939-07-05,3907.43802
1939-07-06,3828.09917
1939-07-07,3808.26446
1939-07-08,4185.12397
1939-07-09,4442.97521
1939-07-10,4323.96694
1939-07-11,4185.12397
1939-07-12,4343.80165
1939-07-13,4522.31405
1939-07-14,4561.98347
1939-07-15,4442.97521
1939-07-16,4442.97521
1939-07-17,4442.97521
1939-07-18,4442.97521
1939-07-19,4165.28926
1939-07-20,4145.45455
1939-07-21,4363.63636
1939-07-22,4363.63636
1939-07-23,4403.30579
1939-07-24,4363.63636
1939-07-25,4264.46281
1939-07-26,4046.28099
1939-07-27,3907.43802
1939-07-28,3907.43802
1939-07-29,3847.93388
1939-07-30,3728.92562
1939-07-31,3431.40496
1939-08-01,3272.72727
1939-08-02,3451.23967
1939-08-03,3629.75207
1939-08-04,3510.7438
1939-08-05,3510.7438
1939-08-06,3570.24793
1939-08-07,3213.22314
1939-08-08,3034.71074
1939-08-09,3352.06612
1939-08-10,3550.41322
1939-08-11,3570.24793
1939-08-12,3867.7686
1939-08-13,3927.27273
1939-08-14,3867.7686
1939-08-15,3490.90909
1939-08-16,3510.7438
1939-08-17,3471.07438
1939-08-18,3570.24793
1939-08-19,4026.44628
1939-08-20,4026.44628
1939-08-21,3907.43802
1939-08-22,3947.10744
1939-08-23,4026.44628
1939-08-24,4026.44628
1939-08-25,3966.94215
1939-08-26,4125.61983
1939-08-27,4284.29752
1939-08-28,4284.29752
1939-08-29,4522.31405
1939-08-30,4938.84298
1939-08-31,4641.32231
1939-09-01,4859.50413
1939-09-02,4284.29752
1939-09-03,4343.80165
1939-09-04,4185.12397
1939-09-05,3986.77686
1939-09-06,3847.93388
1939-09-07,3689.2562
1939-09-08,3649.58678
1939-09-09,3550.41322
1939-09-10,3471.07438
1939-09-11,3451.23967
1939-09-12,3431.40496
1939-09-13,3133.8843
1939-09-14,2261.15702
1939-09-15,1324.95868
1939-09-16,860.82645
1939-09-17,805.28926
1939-09-18,900.49587
1939-09-19,1075.04132
1939-09-20,1656.19835
1939-09-21,1507.43802
1939-09-22,1485.61983
1939-09-23,1914.04959
1939-09-24,1866.44628
1939-09-25,1769.2562
1939-09-26,1707.7686
1939-09-27,1886.28099
1939-09-28,1957.68595
1939-09-29,1957.68595
1939-09-30,1957.68595
1939-10-01,2042.97521
1939-10-02,2102.47934
1939-10-03,2122.31405
1939-10-04,1356.69421
1939-10-05,626.77686
1939-10-06,226.1157
1939-10-07,184.46281
1939-10-08,178.5124
1939-10-09,170.57851
1939-10-10,210.24793
1939-10-11,210.24793
1939-10-12,174.54545
1939-10-13,135.27273
1939-10-14,134.87603000000001
1939-10-15,134.87603000000001
1939-10-16,150.54545
1939-10-17,1799.00826
1939-10-18,1695.86777
1939-10-19,1648.26446
1939-10-20,1465.78512
1939-10-21,1172.2314
1939-10-22,489.91736
1939-10-23,166.61157
1939-10-24,164.6281
1939-10-25,119.00826
1939-10-26,85.28926
1939-10-27,70.21488
1939-10-28,71.00826
1939-10-29,71.80165
1939-10-30,72.59504
1939-10-31,73.38843
1939-11-01,74.38017
1939-11-02,58.90909
1939-11-03,49.78512
1939-11-04,49.78512
1939-11-05,49.78512
1939-11-06,49.78512
1939-11-07,49.78512
1939-11-08,51.57025
1939-11-09,51.57025
1939-11-10,587.10744
1939-11-11,1957.68595
1939-11-12,1914.04959
1939-11-13,1683.96694
1939-11-14,1586.77686
1939-11-15,777.52066
1939-11-16,162.64463
1939-11-17,111.07438
1939-11-18,62.47934
1939-11-19,62.47934
1939-11-20,62.47934
1939-11-21,62.28099
1939-11-22,62.08264
1939-11-23,61.68595
1939-11-24,61.28926
1939-11-25,61.09091
1939-11-26,60.89256
1939-11-27,60.89256
1939-11-28,61.09091
1939-11-29,61.28926
1939-11-30,61.4876
1939-12-01,61.8843
1939-12-02,62.08264
1939-12-03,62.47934
1939-12-04,62.67769
1939-12-05,62.67769
1939-12-06,62.67769
1939-12-07,62.67769
1939-12-08,62.67769
1939-12-09,62.67769
1939-12-10,62.67769
1939-12-11,62.67769
1939-12-12,113.65289
1939-12-13,57.52066
1939-12-14,1324.95868
1939-12-15,1824.79339
1939-12-16,1660.16529
1939-12-17,1402.31405
1939-12-18,1108.76033
1939-12-19,372.89256
1939-12-20,17.85124
1939-12-21,8.52893
1939-12-22,8.52893
1939-12-23,8.52893
1939-12-24,8.52893
1939-12-25,8.52893
1939-12-26,7.33884
1939-12-27,7.33884
1939-12-28,7.33884
1939-12-29,7.33884
1939-12-30,7.1405
1939-12-31,6.7438
1940-01-01,6.94215
1940-01-02,6.7438
1940-01-03,6.34711
1940-01-04,5.55372
1940-01-05,5.35537
1940-01-06,5.35537
1940-01-07,5.35537
1940-01-08,5.35537
1940-01-09,5.35537
1940-01-10,4.56198
1940-01-11,4.56198
1940-01-12,4.56198
1940-01-13,4.16529
1940-01-14,4.16529
1940-01-15,3.96694
1940-01-16,4.16529
1940-01-17,4.16529
1940-01-18,4.16529
1940-01-19,4.16529
1940-01-20,4.16529
1940-01-21,4.16529
1940-01-22,4.36364
1940-01-23,4.36364
1940-01-24,4.36364
1940-01-25,4.36364
1940-01-26,4.36364
1940-01-27,4.16529
1940-01-28,4.16529
1940-01-29,4.16529
1940-01-30,4.16529
1940-01-31,4.16529
1940-02-01,4.56198
1940-02-02,5.15702
1940-02-03,4.76033
1940-02-04,4.76033
1940-02-05,3.96694
1940-02-06,3.96694
1940-02-07,3.96694
1940-02-08,3.96694
1940-02-09,323.30579
1940-02-10,662.47934
1940-02-11,791.40496
1940-02-12,557.35537
1940-02-13,541.4876
1940-02-14,1457.85124
1940-02-15,1761.32231
1940-02-16,1761.32231
1940-02-17,1628.42975
1940-02-18,1582.80992
1940-02-19,884.6281
1940-02-20,7.73554
1940-02-21,7.73554
1940-02-22,7.73554
1940-02-23,7.73554
1940-02-24,6.34711
1940-02-25,6.34711
1940-02-26,6.34711
1940-02-27,65.65289
1940-02-28,119.00826
1940-02-29,501.81818
1940-03-01,2102.47934
1940-03-02,2122.31405
1940-03-03,2122.31405
1940-03-04,2003.30579
1940-03-05,2042.97521
1940-03-06,1691.90083
1940-03-07,1691.90083
1940-03-08,1918.01653
1940-03-09,2280.99174
1940-03-10,2042.97521
1940-03-11,1529.2562
1940-03-12,1674.04959
1940-03-13,2201.65289
1940-03-14,2201.65289
1940-03-15,2340.49587
1940-03-16,2776.8595
1940-03-17,2776.8595
1940-03-18,2757.02479
1940-03-19,2856.19835
1940-03-20,3014.87603
1940-03-21,3014.87603
1940-03-22,3114.04959
1940-03-23,3629.75207
1940-03-24,3609.91736
1940-03-25,3629.75207
1940-03-26,3649.58678
1940-03-27,3768.59504
1940-03-28,3649.58678
1940-03-29,3649.58678
1940-03-30,4204.95868
1940-03-31,4204.95868
1940-04-01,4185.12397
1940-04-02,4204.95868
1940-04-03,4343.80165
1940-04-04,4224.79339
1940-04-05,4125.61983
1940-04-06,4323.96694
1940-04-07,4323.96694
1940-04-08,4323.96694
1940-04-09,4165.28926
1940-04-10,3986.77686
1940-04-11,4006.61157
1940-04-12,4026.44628
1940-04-13,4026.44628
1940-04-14,4026.44628
1940-04-15,3966.94215
1940-04-16,3748.76033
1940-04-17,3590.08264
1940-04-18,3471.07438
1940-04-19,3490.90909
1940-04-20,3510.7438
1940-04-21,3510.7438
1940-04-22,3510.7438
1940-04-23,3213.22314
1940-04-24,2935.53719
1940-04-25,2836.36364
1940-04-26,2836.36364
1940-04-27,2836.36364
1940-04-28,2836.36364
1940-04-29,2856.19835
1940-04-30,2935.53719
1940-05-01,3014.87603
1940-05-02,3074.38017
1940-05-03,3292.56198
1940-05-04,3272.72727
1940-05-05,3292.56198
1940-05-06,3431.40496
1940-05-07,3272.72727
1940-05-08,3034.71074
1940-05-09,2876.03306
1940-05-10,2757.02479
1940-05-11,2836.36364
1940-05-12,2876.03306
1940-05-13,2895.86777
1940-05-14,2796.69421
1940-05-15,2955.3719
1940-05-16,2995.04132
1940-05-17,2876.03306
1940-05-18,2876.03306
1940-05-19,2876.03306
1940-05-20,2796.69421
1940-05-21,2697.52066
1940-05-22,2519.00826
1940-05-23,1834.71074
1940-05-24,2003.30579
1940-05-25,2419.83471
1940-05-26,2717.35537
1940-05-27,2895.86777
1940-05-28,3233.05785
1940-05-29,3352.06612
1940-05-30,3748.76033
1940-05-31,4006.61157
1940-06-01,4165.28926
1940-06-02,4244.6281
1940-06-03,4145.45455
1940-06-04,4085.95041
1940-06-05,4006.61157
1940-06-06,3966.94215
1940-06-07,4066.1157
1940-06-08,4105.78512
1940-06-09,4244.6281
1940-06-10,4145.45455
1940-06-11,4046.28099
1940-06-12,3808.26446
1940-06-13,3689.2562
1940-06-14,3570.24793
1940-06-15,3768.59504
1940-06-16,3768.59504
1940-06-17,3788.42975
1940-06-18,3828.09917
1940-06-19,4006.61157
1940-06-20,4066.1157
1940-06-21,4244.6281
1940-06-22,4204.95868
1940-06-23,3748.76033
1940-06-24,2995.04132
1940-06-25,2975.20661
1940-06-26,3391.73554
1940-06-27,3391.73554
1940-06-28,3411.57025
1940-06-29,3252.89256
1940-06-30,3173.55372
1940-07-01,3312.39669
1940-07-02,3094.21488
1940-07-03,3828.09917
1940-07-04,3510.7438
1940-07-05,3689.2562
1940-07-06,3966.94215
1940-07-07,4046.28099
1940-07-08,3947.10744
1940-07-09,4482.64463
1940-07-10,4720.66116
1940-07-11,4839.66942
1940-07-12,4819.83471
1940-07-13,4680.99174
1940-07-14,5057.85124
1940-07-15,4879.33884
1940-07-16,4859.50413
1940-07-17,4760.33058
1940-07-18,4780.16529
1940-07-19,4720.66116
1940-07-20,4522.31405
1940-07-21,4363.63636
1940-07-22,4066.1157
1940-07-23,3867.7686
1940-07-24,3788.42975
1940-07-25,3788.42975
1940-07-26,3808.26446
1940-07-27,3847.93388
1940-07-28,3867.7686
1940-07-29,3907.43802
1940-07-30,3887.60331
1940-07-31,3431.40496
1940-08-01,2975.20661
1940-08-02,2856.19835
1940-08-03,3292.56198
1940-08-04,3471.07438
1940-08-05,3471.07438
1940-08-06,3352.06612
1940-08-07,3530.57851
1940-08-08,3609.91736
1940-08-09,3768.59504
1940-08-10,4224.79339
1940-08-11,4244.6281
1940-08-12,3808.26446
1940-08-13,3669.42149
1940-08-14,3550.41322
1940-08-15,3510.7438
1940-08-16,3649.58678
1940-08-17,3907.43802
1940-08-18,4442.97521
1940-08-19,4284.29752
1940-08-20,4066.1157
1940-08-21,3768.59504
1940-08-22,3629.75207
1940-08-23,3669.42149
1940-08-24,3927.27273
1940-08-25,3947.10744
1940-08-26,3927.27273
1940-08-27,3689.2562
1940-08-28,3371.90083
1940-08-29,3391.73554
1940-08-30,3689.2562
1940-08-31,3570.24793
1940-09-01,3570.24793
1940-09-02,3471.07438
1940-09-03,3233.05785
1940-09-04,3054.54545
1940-09-05,3054.54545
1940-09-06,3054.54545
1940-09-07,2955.3719
1940-09-08,2895.86777
1940-09-09,2895.86777
1940-09-10,2816.52893
1940-09-11,2618.18182
1940-09-12,2459.50413
1940-09-13,2459.50413
1940-09-14,2578.5124
1940-09-15,2578.5124
1940-09-16,2558.67769
1940-09-17,2340.49587
1940-09-18,2082.64463
1940-09-19,1900.16529
1940-09-20,1715.70248
1940-09-21,1315.04132
1940-09-22,1229.75207
1940-09-23,1229.75207
1940-09-24,1289.2562
1940-09-25,1386.44628
1940-09-26,1342.80992
1940-09-27,1449.91736
1940-09-28,1765.28926
1940-09-29,1765.28926
1940-09-30,1731.57025
1940-10-01,858.84298
1940-10-02,79.33884
1940-10-03,69.42149
1940-10-04,57.91736
1940-10-05,32.13223
1940-10-06,4.56198
1940-10-07,4.56198
1940-10-08,4.56198
1940-10-09,4.36364
1940-10-10,4.36364
1940-10-11,4.16529
1940-10-12,3.96694
1940-10-13,3.96694
1940-10-14,3.3719
1940-10-15,3.3719
1940-10-16,3.3719
1940-10-17,3.3719
1940-10-18,3.3719
1940-10-19,3.3719
1940-10-20,3.3719
1940-10-21,3.3719
1940-10-22,3.3719
1940-10-23,3.3719
1940-10-24,3.3719
1940-10-25,533.55372
1940-10-26,747.7686
1940-10-27,368.92562
1940-10-28,4.56198
1940-10-29,4.16529
1940-10-30,3.96694
1940-10-31,3.7686
1940-11-01,3.7686
1940-11-02,3.7686
1940-11-03,3.7686
1940-11-04,3.7686
1940-11-05,3.7686
1940-11-06,3.7686
1940-11-07,3.7686
1940-11-08,3.7686
1940-11-09,3.57025
1940-11-10,3.57025
1940-11-11,3.3719
1940-11-12,3.3719
1940-11-13,3.17355
1940-11-14,3.17355
1940-11-15,2.97521
1940-11-16,2.77686
1940-11-17,2.77686
1940-11-18,2.57851
1940-11-19,2.57851
1940-11-20,2.57851
1940-11-21,2.57851
1940-11-22,745.78512
1940-11-23,1261.4876
1940-11-24,987.7686
1940-11-25,313.38843
1940-11-26,10.31405
1940-11-27,3.96694
1940-11-28,3.3719
1940-11-29,3.17355
1940-11-30,3.17355
1940-12-01,3.17355
1940-12-02,2.77686
1940-12-03,2.77686
1940-12-04,2.77686
1940-12-05,2.77686
1940-12-06,2.77686
1940-12-07,2.77686
1940-12-08,2.77686
1940-12-09,2.77686
1940-12-10,2.77686
1940-12-11,2.77686
1940-12-12,2.57851
1940-12-13,2.57851
1940-12-14,2.57851
1940-12-15,2.57851
1940-12-16,2.57851
1940-12-17,2.57851
1940-12-18,2.57851
1940-12-19,2.57851
1940-12-20,2.57851
1940-12-21,2.57851
1940-12-22,2.57851
1940-12-23,2.57851
1940-12-24,2.57851
1940-12-25,2.57851
1940-12-26,2.57851
1940-12-27,2.57851
1940-12-28,2.77686
1940-12-29,2.77686
1940-12-30,2.77686
1940-12-31,2.77686
1941-01-01,2.77686
1941-01-02,2.77686
1941-01-03,2.77686
1941-01-04,2.77686
1941-01-05,2.77686
1941-01-06,2.77686
1941-01-07,2.97521
1941-01-08,2.97521
1941-01-09,2.97521
1941-01-10,2.97521
1941-01-11,2.97521
1941-01-12,2.97521
1941-01-13,2.97521
1941-01-14,2.97521
1941-01-15,2.97521
1941-01-16,2.77686
1941-01-17,2.77686
1941-01-18,2.77686
1941-01-19,2.77686
1941-01-20,2.77686
1941-01-21,2.77686
1941-01-22,2.77686
1941-01-23,2.97521
1941-01-24,3.17355
1941-01-25,3.17355
1941-01-26,3.17355
1941-01-27,3.17355
1941-01-28,3.57025
1941-01-29,4.95868
1941-01-30,4.95868
1941-01-31,4.95868
1941-02-01,4.36364
1941-02-02,4.16529
1941-02-03,3.96694
1941-02-04,3.96694
1941-02-05,3.96694
1941-02-06,3.96694
1941-02-07,4.16529
1941-02-08,4.16529
1941-02-09,4.36364
1941-02-10,4.36364
1941-02-11,4.56198
1941-02-12,4.56198
1941-02-13,4.56198
1941-02-14,4.56198